Regional Weather Roundup
Issued by NWS

Home | Current Version | Previous Version | Text Only | Print | Product List | Glossary On
Versions: 1 2 3 4 5 6 7 8 9 10 11 12 13 14 15 16 17 18 19 20 21 22 23 24 25 26 27 28 29 30 31 32 33 34 35 36 37 38 39 40 41 42 43 44 45 46 47 48 49 50
000
ASUS43 KBIS 031702
RWRND

NORTH DAKOTA REGIONAL WEATHER ROUNDUP
NATIONAL WEATHER SERVICE BISMARCK ND
1200 PM CDT FRI JUL 03 2015

NOTE: "FAIR" INDICATES FEW OR NO CLOUDS BELOW 12,000 FEET WITH NO
SIGNIFICANT WEATHER AND/OR OBSTRUCTIONS TO VISIBILITY.


NDZ001>003-009>011-017-031800-
NORTHWEST NORTH DAKOTA

CITY           SKY/WX    TMP DP  RH WIND       PRES   REMARKS
WILLISTON      SUNNY     78  62  57 VRB5      29.99F HAZE
MINOT          CLOUDY    75  64  68 S5        29.98F HAZE
$$

NDZ018>021-031>035-040>046-031800-
SOUTHWEST NORTH DAKOTA

CITY           SKY/WX    TMP DP  RH WIND       PRES   REMARKS
BISMARCK       PTSUNNY   78  63  59 W6        30.00F HAZE
DICKINSON      SUNNY     79  60  52 S5        30.01S HAZE
GARRISON         N/A     75  66  73 S6        29.99F
HETTINGER ARPT SUNNY     77  58  51 SE5       30.04F
$$

NDZ004>008-012>016-024-026-027-054-031800-
NORTHEAST NORTH DAKOTA

CITY           SKY/WX    TMP DP  RH WIND       PRES   REMARKS
GRAND FORKS    MOSUNNY   77  64  64 NW6       29.93S HAZE
GRND FRKS AFB  MOSUNNY   78  64  61 N6        29.94S HAZE
DEVILS LAKE    SUNNY     75  63  64 NW5       29.96F
$$

NDZ022-023-025-028>030-036>039-047>053-031800-
SOUTHEAST NORTH DAKOTA

CITY           SKY/WX    TMP DP  RH WIND       PRES   REMARKS
FARGO          MOSUNNY   79  66  64 N6        29.93S HAZE
JAMESTOWN      CLOUDY    75  66  73 N7        29.97S HAZE
$$



USA.gov is the U.S. government's official web portal to all federal, state and local government web resources and services.